• In Czech Republic
  • List of Countries
  • For 7 days
  • Water Temperature
  • Satellite Maps
  • Weather Map
  • Weather Widgets
  • user-avatar
    Login

    Hourly Weather Artashat

    Today, 20 September, Thursday

    Time Temperature Precipitation Wind Pressure Humidity
    00:00 +13°C° 0 mm 2 mps 605 mmHg 57%
    01:00 +12°C° 0 mm 2 mps 605 mmHg 60%
    02:00 +12°C° 0 mm 1 mps 605 mmHg 63%
    03:00 +11°C° 0 mm 1 mps 604 mmHg 65%
    04:00 +11°C° 0 mm 1 mps 604 mmHg 67%
    05:00 +11°C° 0 mm 1 mps 604 mmHg 69%
    06:00 +10°C° 0 mm 1 mps 604 mmHg 71%
    07:00 +12°C° 0 mm 1 mps 605 mmHg 62%
    08:00 +14°C° 0 mm 1 mps 606 mmHg 53%
    09:00 +16°C° 0 mm 2 mps 607 mmHg 43%
    10:00 +17°C° 0 mm 2 mps 607 mmHg 40%
    11:00 +18°C° 0 mm 2 mps 607 mmHg 37%
    12:00 +19°C° 0 mm 2 mps 607 mmHg 34%
    13:00 +20°C° 0 mm 2 mps 607 mmHg 33%
    14:00 +20°C° 0 mm 2 mps 607 mmHg 32%
    15:00 +21°C° 0 mm 2 mps 607 mmHg 32%
    16:00 +20°C° 0 mm 2 mps 607 mmHg 34%
    17:00 +19°C° 0 mm 2 mps 606 mmHg 37%
    18:00 +18°C° 0 mm 2 mps 606 mmHg 39%
    19:00 +17°C° 0 mm 2 mps 606 mmHg 42%
    20:00 +16°C° 0 mm 1 mps 606 mmHg 46%
    21:00 +15°C° 0 mm 1 mps 606 mmHg 49%
    22:00 +14°C° 0 mm 1 mps 605 mmHg 52%
    23:00 +13°C° 0 mm 1 mps 605 mmHg 54%

    Tomorrow, 21 September, Friday

    Time Temperature Precipitation Wind Pressure Humidity
    00:00 +13°C° 0 mm 1 mps 605 mmHg 57%
    01:00 +12°C° 0 mm 1 mps 605 mmHg 59%
    02:00 +12°C° 0 mm 1 mps 605 mmHg 62%
    03:00 +12°C° 0 mm 1 mps 604 mmHg 64%
    04:00 +11°C° 0 mm 1 mps 604 mmHg 66%
    05:00 +11°C° 0 mm 1 mps 604 mmHg 68%
    06:00 +10°C° 0 mm 1 mps 604 mmHg 70%
    07:00 +12°C° 0 mm 1 mps 605 mmHg 64%
    08:00 +14°C° 0 mm 1 mps 605 mmHg 57%
    09:00 +16°C° 0 mm 1 mps 606 mmHg 50%
    10:00 +17°C° 0 mm 2 mps 606 mmHg 45%
    11:00 +18°C° 0 mm 2 mps 607 mmHg 41%
    12:00 +20°C° 0 mm 2 mps 607 mmHg 37%
    13:00 +20°C° 0 mm 2 mps 607 mmHg 35%
    14:00 +21°C° 0 mm 2 mps 606 mmHg 33%
    15:00 +21°C° 0 mm 2 mps 606 mmHg 31%
    16:00 +20°C° 0 mm 2 mps 606 mmHg 34%
    17:00 +19°C° 0 mm 2 mps 605 mmHg 37%
    18:00 +18°C° 0 mm 1 mps 605 mmHg 40%
    19:00 +18°C° 0.1 mm 1 mps 605 mmHg 44%
    20:00 +16°C° 0.1 mm 1 mps 605 mmHg 48%
    21:00 +15°C° 0.1 mm 1 mps 605 mmHg 52%
    22:00 +14°C° 0 mm 1 mps 605 mmHg 54%
    23:00 +14°C° 0 mm 1 mps 605 mmHg 56%

    Day after tomorrow, 22 September, Saturday

    Time Temperature Precipitation Wind Pressure Humidity
    00:00 +13°C° 0 mm 1 mps 605 mmHg 58%
    01:00 +13°C° 0 mm 1 mps 605 mmHg 59%
    02:00 +12°C° 0 mm 1 mps 604 mmHg 60%
    03:00 +12°C° 0 mm 1 mps 604 mmHg 62%
    04:00 +12°C° 0 mm 1 mps 604 mmHg 62%
    05:00 +11°C° 0 mm 1 mps 604 mmHg 63%
    06:00 +11°C° 0 mm 1 mps 604 mmHg 64%
    07:00 +13°C° 0 mm 1 mps 605 mmHg 56%
    08:00 +15°C° 0 mm 1 mps 605 mmHg 49%
    09:00 +18°C° 0 mm 1 mps 606 mmHg 42%
    10:00 +19°C° 0 mm 1 mps 606 mmHg 38%
    11:00 +19°C° 0 mm 2 mps 607 mmHg 34%
    12:00 +20°C° 0 mm 2 mps 607 mmHg 30%
    13:00 +21°C° 0 mm 2 mps 607 mmHg 30%
    14:00 +21°C° 0 mm 2 mps 606 mmHg 29%
    15:00 +21°C° 0 mm 2 mps 606 mmHg 29%
    16:00 +20°C° 0.1 mm 2 mps 606 mmHg 32%
    17:00 +19°C° 0.1 mm 2 mps 605 mmHg 36%
    18:00 +17°C° 0.1 mm 2 mps 605 mmHg 39%
    19:00 +17°C° 0 mm 2 mps 605 mmHg 43%
    20:00 +16°C° 0 mm 1 mps 605 mmHg 47%
    21:00 +15°C° 0 mm 1 mps 605 mmHg 51%
    22:00 +14°C° 0 mm 1 mps 605 mmHg 54%
    23:00 +13°C° 0 mm 1 mps 605 mmHg 57%

    23 September, Sunday

    Time Temperature Precipitation Wind Pressure Humidity
    00:00 +13°C° 0 mm 1 mps 604 mmHg 59%
    01:00 +12°C° 0 mm 1 mps 604 mmHg 61%
    02:00 +12°C° 0 mm 1 mps 604 mmHg 63%
    03:00 +11°C° 0 mm 1 mps 604 mmHg 65%
    04:00 +11°C° 0 mm 1 mps 604 mmHg 66%
    05:00 +10°C° 0 mm 1 mps 603 mmHg 68%
    06:00 +10°C° 0 mm 1 mps 603 mmHg 69%
    07:00 +12°C° 0 mm 1 mps 604 mmHg 60%
    08:00 +14°C° 0 mm 1 mps 605 mmHg 51%
    09:00 +16°C° 0 mm 1 mps 606 mmHg 42%
    10:00 +18°C° 0 mm 1 mps 606 mmHg 38%
    11:00 +20°C° 0 mm 1 mps 606 mmHg 34%
    12:00 +21°C° 0 mm 1 mps 606 mmHg 30%
    13:00 +20°C° 0 mm 2 mps 606 mmHg 29%
    14:00 +21°C° 0 mm 2 mps 606 mmHg 28%
    15:00 +21°C° 0 mm 2 mps 606 mmHg 26%
    16:00 +20°C° 0 mm 2 mps 605 mmHg 29%
    17:00 +18°C° 0 mm 2 mps 605 mmHg 32%
    18:00 +18°C° 0 mm 1 mps 604 mmHg 35%
    19:00 +16°C° 0 mm 1 mps 604 mmHg 39%
    20:00 +15°C° 0 mm 1 mps 604 mmHg 42%
    21:00 +14°C° 0 mm 1 mps 604 mmHg 46%
    22:00 +14°C° 0 mm 1 mps 604 mmHg 47%
    23:00 +13°C° 0 mm 1 mps 604 mmHg 49%

    24 September, Monday

    Time Temperature Precipitation Wind Pressure Humidity
    00:00 +13°C° 0 mm 1 mps 604 mmHg 51%
    01:00 +13°C° 0 mm 1 mps 604 mmHg 53%
    02:00 +12°C° 0 mm 1 mps 604 mmHg 54%
    03:00 +12°C° 0 mm 2 mps 604 mmHg 55%
    04:00 +12°C° 0 mm 2 mps 603 mmHg 59%
    05:00 +10°C° 0 mm 2 mps 603 mmHg 63%
    06:00 +9°C° 0 mm 2 mps 603 mmHg 67%
    07:00 +12°C° 0 mm 2 mps 604 mmHg 58%
    08:00 +14°C° 0 mm 2 mps 605 mmHg 49%
    09:00 +16°C° 0 mm 2 mps 606 mmHg 41%
    10:00 +17°C° 0 mm 2 mps 606 mmHg 36%
    11:00 +18°C° 0 mm 2 mps 606 mmHg 31%
    12:00 +19°C° 0 mm 2 mps 606 mmHg 26%
    13:00 +20°C° 0 mm 2 mps 606 mmHg 24%
    14:00 +20°C° 0 mm 2 mps 606 mmHg 23%
    15:00 +21°C° 0 mm 2 mps 606 mmHg 22%
    16:00 +19°C° 0 mm 2 mps 605 mmHg 24%
    17:00 +18°C° 0 mm 2 mps 605 mmHg 27%
    18:00 +18°C° 0 mm 1 mps 604 mmHg 29%
    19:00 +16°C° 0 mm 1 mps 604 mmHg 32%
    20:00 +15°C° 0 mm 1 mps 604 mmHg 34%
    21:00 +14°C° 0 mm 1 mps 604 mmHg 36%
    22:00 +13°C° 0 mm 1 mps 604 mmHg 39%
    23:00 +13°C° 0 mm 1 mps 604 mmHg 41%

    25 September, Tuesday

    Time Temperature Precipitation Wind Pressure Humidity
    00:00 +12°C° 0 mm 1 mps 603 mmHg 43%
    01:00 +12°C° 0 mm 1 mps 603 mmHg 45%
    02:00 +11°C° 0 mm 1 mps 603 mmHg 46%
    03:00 +11°C° 0 mm 1 mps 602 mmHg 48%
    04:00 +10°C° 0 mm 1 mps 602 mmHg 49%
    05:00 +9°C° 0 mm 0 mps 602 mmHg 50%
    06:00 +8°C° 0 mm 0 mps 602 mmHg 52%
    07:00 +12°C° 0 mm 1 mps 603 mmHg 45%
    08:00 +15°C° 0 mm 1 mps 604 mmHg 38%
    09:00 +18°C° 0 mm 1 mps 605 mmHg 31%
    10:00 +19°C° 0 mm 1 mps 605 mmHg 28%
    11:00 +21°C° 0 mm 1 mps 605 mmHg 26%
    12:00 +21°C° 0 mm 2 mps 605 mmHg 23%
    13:00 +23°C° 0 mm 2 mps 605 mmHg 22%
    14:00 +23°C° 0 mm 2 mps 605 mmHg 21%
    15:00 +23°C° 0 mm 2 mps 604 mmHg 21%
    16:00 +21°C° 0 mm 2 mps 604 mmHg 23%
    17:00 +20°C° 0 mm 1 mps 603 mmHg 26%
    18:00 +18°C° 0 mm 1 mps 603 mmHg 29%
    19:00 +18°C° 0 mm 1 mps 603 mmHg 32%
    20:00 +16°C° 0 mm 1 mps 603 mmHg 35%
    21:00 +15°C° 0 mm 1 mps 603 mmHg 38%
    22:00 +15°C° 0 mm 1 mps 603 mmHg 40%
    23:00 +14°C° 0 mm 1 mps 603 mmHg 42%
    Show more